Regional Weather Roundup
Issued by NWS Goodland, KS

Home | Current Version | Previous Version | Text Only | Print | Product List | Glossary Off
Versions: 1 2 3 4 5 6 7 8 9 10 11 12 13 14 15 16 17 18 19 20 21 22 23 24 25 26 27 28 29 30 31 32 33 34 35 36 37 38 39 40 41 42 43 44 45 46 47 48 49 50

000
ASUS43 KGLD 290459
RWRGLD

GOODLAND FORECAST AREA HOURLY WEATHER ROUNDUP
NATIONAL WEATHER SERVICE GOODLAND KS
1100 PM MDT FRI AUG 28 2015

...OFFICIAL OBSERVATIONS...

CITY           SKY/WX    TMP DP  RH WIND       PRES   REMARKS
GOODLAND KS    CLEAR     64  54  69 SE6       30.16R
HILL CITY KS   CLEAR     64  60  87 CALM      30.08R
IMPERIAL NEB   CLEAR     65  59  81 CALM      30.13R
MCCOOK NEB     CLEAR     65  61  87 CALM      30.11R
AKRON CO       CLEAR     68  42  38 NE8       30.23R
BURLINGTON CO  CLEAR     59  50  72 CALM      30.20R
LIMON CO       CLEAR     55  44  66 W3        30.29R
$$

...UNOFFICIAL OBSERVATIONS...

CITY           SKY/WX    TMP DP  RH WIND       PRES   REMARKS
COLBY KS       CLEAR     66  61  82 E5        30.15R
GOVE KS          N/A     67  32  27 MISG        N/A
LENORA KS        N/A     67  32  27 MISG        N/A
NORTON KS      CLEAR     57  54  88 CALM      30.08S
SHARON SPRINGS   N/A     68  57  68 CALM        N/A
TRENTON NEB      N/A     65  32  29 E6          N/A
KIT CARSON CO    N/A     64  46  52 MISG        N/A
YUMA CO          N/A     62  48  61 CALM        N/A
$$


USA.gov is the U.S. government's official web portal to all federal, state and local government web resources and services.